Regional Weather Roundup
Issued by NWS

Home | Current Version | Previous Version | Graphics & Text | Print | Product List | Glossary On
Versions: 1 2 3 4 5 6 7 8 9 10 11 12 13 14 15 16 17 18 19 20 21 22 23 24 25 26 27 28 29 30 31 32 33 34 35 36 37 38 39 40 41 42 43 44 45 46 47 48 49 50
000
ASUS44 KMEG 311310
RWRTN
TENNESSEE HOURLY STATE WEATHER ROUNDUP
NATIONAL WEATHER SERVICE MEMPHIS TN
800 AM CDT MON AUG 31 2015

TNZ002-004-019-021-049-052-054-088>092-311400-
WEST TENNESSEE

CITY           SKY/WX    TMP DP  RH WIND       PRES   REMARKS
MEMPHIS INTL   MOSUNNY   73  67  81 SE6       30.09R
NWS MEMPHIS      N/A     71 N/A N/A MISG        N/A
JACKSON        MOSUNNY   68  66  93 CALM      30.12R FOG
DYERSBURG      CLOUDY   N/A N/A N/A MISG        N/A
UNION CITY     SUNNY    N/A N/A N/A CALM      30.12R
PARIS          SUNNY     68  64  88 SE5       30.14R
LEXINGTON      SUNNY     66  66 100 CALM      30.12R
$$

TNZ008-025-027-028-033-062-065-066-311400-
NORTH MIDDLE TENNESSEE

CITY           SKY/WX    TMP DP  RH WIND       PRES   REMARKS
NASHVILLE      MOSUNNY   71  64  78 NE3       30.15R
CLARKSVILLE    SUNNY     67  65  93 CALM      30.14R
SMYRNA         MOSUNNY   67  66  96 CALM      30.15S
COOKEVILLE     SUNNY     68  66  94 CALM      30.15S
CROSSVILLE     SUNNY     69  63  81 CALM      30.20R
$$

TNZ061-075-076-078-094-096-097-311400-
SOUTH MIDDLE TENNESSEE

CITY           SKY/WX    TMP DP  RH WIND       PRES   REMARKS
FAYETTEVILLE   CLOUDY    64  64 100 CALM      30.14S
TULLAHOMA      SUNNY     68  64  88 CALM      30.16R
WINCHESTER     MOSUNNY   68  66  94 CALM      30.15R
MCMINNVILLE    PTSUNNY   64  64 100 CALM      30.16R
COLUMBIA       SUNNY     66  66 100 CALM      30.12S
SHELBYVILLE    MOSUNNY   68  68 100 E5        30.16R
$$

TNZ017-018-042-046-047-311400-
NORTHEAST TENNESSEE

CITY           SKY/WX    TMP DP  RH WIND       PRES   REMARKS
TRI CITIES     PTSUNNY   68  64  87 CALM      30.17S
ELIZABETHTON   MOSUNNY   66  63  88 NE5       30.17F
$$

TNZ012-013-036-069-073-074-311400-
CENTRAL EAST TENNESSEE

CITY           SKY/WX    TMP DP  RH WIND       PRES   REMARKS
KNOXVILLE      MOSUNNY   69  67  93 CALM      30.15R
OAK RIDGE      CLOUDY    67  66  97 CALM      30.17R FOG
GATLINBURG     SUNNY     66  63  88 CALM      30.15S
MORRISTOWN     SUNNY     68  63  83 CALM      30.18R
$$

TNZ083-085-099-311400-
SOUTHEAST TENNESSEE

CITY           SKY/WX    TMP DP  RH WIND       PRES   REMARKS
CHATTANOOGA    PTSUNNY   72  66  81 NE6       30.14S
$$

SKY/WX REPORTED AS FAIR MEANS FEW OR NO CLOUDS BELOW
12 THOUSAND FEET.




USA.gov is the U.S. government's official web portal to all federal, state and local government web resources and services.